Regional Weather Roundup
Issued by NWS

Home | Current Version | Previous Version | Graphics & Text | Print | Product List | Glossary Off
Versions: 1 2 3 4 5 6 7 8 9 10 11 12 13 14 15 16 17 18 19 20 21 22 23 24 25 26 27 28 29 30 31 32 33 34 35 36 37 38 39 40 41 42 43 44 45 46 47 48 49 50

112
ASUS43 KDTX 262101
RWRMI
MICHIGAN HOURLY REGIONAL WEATHER ROUNDUP
NATIONAL WEATHER SERVICE DETROIT/PONTIAC MI
400 PM EST SUN FEB 26 2017

NOTE: "FAIR" INDICATES FEW OR NO CLOUDS BELOW 12,000 FEET WITH NO
SIGNIFICANT WEATHER AND/OR OBSTRUCTION TO VISIBILITY.

MIZ047>049-052>055-059>063-066>070-074>076-081>083-262200-
SOUTHEAST LOWER MICHIGAN

CITY           SKY/WX    TMP DP  RH WIND       PRES   REMARKS
ADRIAN         SUNNY     41  20  43 SW15G32   30.00F
ALMA           CLOUDY    38  19  46 SW16      29.90S WCI  29
ANN ARBOR      PTSUNNY   41  19  41 S15G24    29.97F
BAD AXE        CLOUDY    36  20  53 SW20G25   29.89F WCI  25
CARO           PTSUNNY   38  22  51 S12       29.89F WCI  30
DETROIT CITY   PTSUNNY   40  21  46 S15G22    29.99F WCI  32
DETROIT        MOSUNNY   42  19  39 S25       30.01F
FLINT          MOSUNNY   40  19  43 SW15G33   29.92F WCI  32
GROSSE ILE     MOSUNNY   40  24  53 S17G28    30.00F WCI  31
HILLSDALE      SUNNY     39  19  45 SW20G30   29.96S WCI  30
HOWELL         CLOUDY    39  17  40 S17G24    29.93S WCI  30

CITY           SKY/WX    TMP DP  RH WIND       PRES   REMARKS
JACKSON        MOSUNNY   42  18  37 SW18G29   29.95F
LAMBERTVILLE   PTSUNNY   44  19  37 SW14G26   30.02F
LANSING        PTSUNNY   42  19  39 SW26G35   29.92F
LAPEER         PTSUNNY   39  20  46 SW16G22   29.92F WCI  30
MASON          PTSUNNY   40  22  48 SW12G20   29.93F WCI  33
MONROE         MOSUNNY   42  22  44 S14G23    30.01F
MT. CLEMENS    PTSUNNY   40  21  46 S17G25    29.96F WCI  31
PONTIAC        CLOUDY    38  17  42 SW15G28   29.94F WCI  29
PORT HOPE        N/A     37  19  48 SW10G25   29.86F WCI  30
PORT HURON     CLOUDY    36  23  60 S16G25    29.97F WCI  26
TRI CITIES     CLOUDY    38  23  55 SW18G24   29.89S WCI  28
MIDLAND        CLOUDY    39  21  48 SW20G29   29.88R WCI  29
TROY           PTSUNNY   40  16  37 S17G28    29.99F WCI  31
SAGINAW HB     CLOUDY    37  21  52 S17G24    29.90S WCI  28
$$
MIZ043>046-050>051-056>058-064>065-071>073-077>080-262200-
SOUTHWEST LOWER MICHIGAN

CITY           SKY/WX    TMP DP  RH WIND       PRES   REMARKS
BATTLE CREEK   PTSUNNY   43  21  41 SW26G33   29.94F
BENTON HARBOR  SUNNY     46  20  35 SW21G33   29.95S
BIG RAPIDS     CLOUDY    37  24  59 SW20G28   29.83F WCI  26
COLDWATER      SUNNY     42  19  39 SW17G23   29.97S
FREMONT        FAIR      39  24  54 SW18G36   29.86S WCI  30
HOLLAND        SUNNY     43  26  51 SW24G31   29.92S
GRAND RAPIDS   MOSUNNY   42  21  43 SW28G38   29.90F
IONIA          FAIR      41  20  43 SW18G32   29.90S
KALAMAZOO      MOSUNNY   44  20  38 SW22G31   29.95S
LUDINGTON      SUNNY     37  29  74 SW17G24   29.83F WCI  27
MARSHALL       SUNNY     42  21  43 SW25G32   29.95S
MOUNT PLEASANT CLOUDY    37  21  52 SW13G23   29.86F WCI  29
MUSKEGON       MOSUNNY   42  29  59 SW22G29   29.89F
SOUTH HAVEN    SUNNY     44  21  40 SW22G30   29.94S
$$
MIZ016>042-262200-
NORTHERN LOWER MICHIGAN

CITY           SKY/WX    TMP DP  RH WIND       PRES   REMARKS
ALPENA         LGT SNOW  33  27  78 SW15G22   29.80S WCI  23
BEAVER ISLAND  CLOUDY    32  27  80 SW23G33   29.72S WCI  19
BELLAIRE       CLOUDY    33  29  83 SW7G17    29.79S WCI  27
CADILLAC       CLOUDY    31  26  83 SW12      29.79S WCI  22
CHARLEVOIX     CLOUDY    34  28  78 SW16G25   29.77S WCI  23
FRANKFORT      MOSUNNY   37  28  69 SW14G25   29.79F WCI  28
GAYLORD        LGT SNOW  32  24  72 SW15G25   29.75S WCI  22
GRAYLING       FLURRIES  33  25  74 SW15G23   29.79S WCI  22
HARBOR SPRINGS CLOUDY    32  27  82 SW14G24   29.74S WCI  22
HOUGHTON LAKE  CLOUDY    32  24  72 SW16G26   29.82R WCI  21
MANISTEE       MOSUNNY   38  24  57 SW13G30   29.81S WCI  30
OSCODA         CLOUDY    37  20  50 SW15G24   29.82F WCI  28
PELLSTON       CLOUDY    33  24  69 SW16G25   29.74S WCI  23
ROGERS CITY    LGT SNOW  33  28  83 S14G21    29.77F WCI  23
TRAVERSE CITY  PTSUNNY   36  26  67 SW13G23   29.77F WCI  27
$$
MIZ007>008-015-262200-
EASTERN UPPER MICHIGAN

CITY           SKY/WX    TMP DP  RH WIND       PRES   REMARKS
KINROSS        LGT SNOW  30  28  92 SW12G21   29.69S FOG     WCI  20
MACKINAC ISLAN CLOUDY    31  26  81 SW16G33   29.72S WCI  20
NEWBERRY       CLOUDY    29  23  78 SW20G25   29.67R WCI  17
S. S. MARIE    LGT SNOW  32  27  81 SW17G24   29.67F WCI  21
MUNISING         N/A     34  21  59 SW8G18    29.66R WCI  27
$$
MIZ004>006-011>014-085-262200-
CENTRAL UPPER MICHIGAN

CITY           SKY/WX    TMP DP  RH WIND       PRES   REMARKS
MANISTIQUE     PTSUNNY   32  25  74 SW12G18   29.69S WCI  23
ESCANABA       CLOUDY    36  22  56 SW15G22   29.69S WCI  27
MENOMINEE      MIX PCPN  36  23  59 W10G30    29.74R WCI  28
SAWYER-GWINN   FLURRIES  30  21  69 W17G26    29.64S WCI  18
$$
MIZ001>003-009>011-084-262200-
WESTERN UPPER MICHIGAN

CITY           SKY/WX    TMP DP  RH WIND       PRES   REMARKS
IRON MOUNTAIN  LGT SNOW  33  20  58 W20G26    29.67R WCI  21
HOUGHTON       HVY SNOW  24  19  81 NW26G33   29.65R VSB 1/4 WCI   8
COPPER HARBOR    N/A     26  24  92 N21       29.64R WCI  12
IRONWOOD       FLURRIES  24  17  74 W18       29.74R WCI  10
$$

ABBREVIATIONS USED IN REMARKS
   TC - TEMPERATURE IN CELSIUS
  WCI - WIND CHILL INDEX
   HX - HEAT INDEX
  VSB - VISIBILITY





USA.gov is the U.S. government's official web portal to all federal, state and local government web resources and services.